{"data":{"norad_id":66056,"intl_designator":"2025-234D","name":"2025-234D","alt_names":[],"object_type":"PAYLOAD","status":"ACTIVE","operator":null,"country":"PRC","launch_date":"2025-10-19","launch_site_code":"JSC","launch_vehicle":null,"mission":null,"orbit_class":"UNKNOWN","rcs_meters":null,"size_class":null,"mass_kg":null,"dimensions":null,"purposes":[],"wikipedia_slug":null,"has_3d_model":false,"image_url":null,"decayed_at":null,"tle_current":{"epoch":"2026-05-25T04:17:57.386688Z","epoch_age_seconds":69786,"freshness":"FRESH","line1":"1 66056U 25234D   26145.17913642  .00012919  00000+0  57811-3 0  9996","line2":"2 66056  97.4254 213.4111 0003745 146.7684 213.3788 15.21410953 33159","mean_motion":15.21410953,"eccentricity":0.0003745,"inclination_deg":97.4254,"raan_deg":213.4111,"arg_perigee_deg":146.7684,"mean_anomaly_deg":213.3788,"bstar":0.00057811,"rev_number":3315,"period_min":94.648983376946,"perigee_km":499.00737688463,"apogee_km":504.16028778805,"semimajor_km":6879.7208323363,"source":"CELESTRAK","updated_at":"2026-05-25T13:38:05.924897Z"}}}